User: anonymous   Login
Location: Steilacoom
(47.1700°N, 122.5700°W)
Time: 11:19:41
(UTC-08:00)
Language:

ISS - Orbit

View from above orbital plane
View from above orbital plane
View from above satellite
View from above satellite

Ground track
Ground track

The orbit data is extracted from the following two-line orbital elements,

1 25544U 98067A   19347.15627572  .00016717  00000-0  10270-3 0  9130
2 25544  51.6378 194.0494 0007548  28.7026 331.4538 15.50106923  3015
Epoch (UTC): 13 December 2019 03:45:02
Eccentricity: 0.0007548
inclination: 51.6378°
perigee height: 411 km
apogee height: 421 km
right ascension of ascending node: 194.0494°
argument of perigee: 28.7026°
revolutions per day: 15.50106923
mean anomaly at epoch: 331.4538°
orbit number at epoch: 301

The dashed part of the orbit path shows where the satellite is in the earth's shadow,  

DLR